This is the latest recevied weather packets stored in our database for station/object DK0KTL-4. If no packets are shown the sender has not sent any weather packets the latest 1 day(s).
| Time | Temp. | Humidity | Pressure | Rain* | Wind** | Luminosity | Snow |
|---|---|---|---|---|---|---|---|
| 1778031400 | 12.22° C | 93% | 1003.7 hPa | 0 mm | - | - | - |
| 1778031100 | 12.22° C | 93% | 1003.8 hPa | 0 mm | - | - | - |
| 1778030199 | 12.22° C | 94% | 1003.7 hPa | 0 mm | - | - | - |
| 1778029899 | 12.22° C | 94% | 1003.7 hPa | 0 mm | - | - | - |
| 1778029298 | 12.22° C | 94% | 1003.6 hPa | 0 mm | - | - | - |
| 1778028998 | 12.22° C | 94% | 1003.6 hPa | 0 mm | - | - | - |
| 1778028397 | 12.22° C | 94% | 1003.7 hPa | 0 mm | - | - | - |
| 1778027797 | 12.22° C | 94% | 1003.7 hPa | 0 mm | - | - | - |
| 1778027496 | 12.22° C | 94% | 1003.6 hPa | 0 mm | - | - | - |
| 1778027196 | 12.22° C | 94% | 1003.7 hPa | 0 mm | - | - | - |
| 1778026896 | 12.22° C | 95% | 1003.7 hPa | 0 mm | - | - | - |
| 1778026596 | 12.22° C | 95% | 1003.9 hPa | 0 mm | - | - | - |
| 1778026295 | 11.67° C | 95% | 1003.9 hPa | 0 mm | - | - | - |
| 1778026036 | 11.67° C | 95% | 1003.9 hPa | 0 mm | - | - | - |
| 1778025995 | 11.67° C | 95% | 1003.9 hPa | 0 mm | - | - | - |
| 1778024794 | 12.22° C | 95% | 1004 hPa | 0 mm | - | - | - |
| 1778021491 | 12.22° C | 95% | 1004.6 hPa | 0.25 mm | - | - | - |
| 1778020590 | 12.22° C | 95% | 1004.6 hPa | 1.27 mm | - | - | - |
| 1778020290 | 12.22° C | 94% | 1004.6 hPa | 1.78 mm | - | - | - |
| 1778018788 | 12.22° C | 94% | 1004.9 hPa | 4.83 mm | - | - | - |
| 1778018488 | 12.22° C | 94% | 1004.9 hPa | 5.59 mm | - | - | - |
| 1778017287 | 12.22° C | 94% | 1005.1 hPa | 8.64 mm | - | - | - |
| 1778016386 | 12.22° C | 93% | 1004.7 hPa | 10.16 mm | - | - | - |
| 1778014584 | 12.22° C | 92% | 1005.1 hPa | 10.92 mm | - | - | - |
| 1778013383 | 12.22° C | 92% | 1005.1 hPa | 12.45 mm | - | - | - |
* Rain latest hour (hover to see other rain measurements)
** Current wind speed in m/s (hover to see current wind gust speed)